STARLINK-30149, 57516

Orbit data source: Space-Track

STARLINK-30149, 57516 is a payload satellite owned by SpaceX/Seattle (US) in LEO that was launched on Mon, 07 Aug 2023 UTC via an FALCON 9 launch vehicle from the Air Force Eastern Test Range (AFETR). Payload-class satellites include a variety of spacecraft equipped with specific instruments for various scientific and technological missions. These include communications satellites like Starlink; space stations such as the ISS; scientific satellites like the Hubble; Earth observation satellites from companies like Planet Labs, Umbra, and HawkEye 360; GPS; miniature CubeSats for education and research; and military/defense satellites.

Loading next visibility...
Identifier
57516, 2023-113Y
Orbit
LEO
Country
Flag of USUS
Related business
Manufacturer
SpaceX/Seattle
Mission
Operational Commercial Communications
Bus & Motor
STARLINK V2M, Unknown motor
Mass
730 kg wet, ~700 kg dry
Launch date (UTC)
2023-08-07 (3 years ago)
Launch vehicle
FALCON 9
Launch site
Air Force Eastern Test Range (AFETR)
Object type
Payload
Rocket body
Debris
Shape & HBR
Box + 2 Pan, 17.7 m
Radar Cross Section
33.884 m², Large (>1 m²)

Expand to show TLE details & history
Last TLE update: 2 days ago

TLE from 2 days ago
0 STARLINK-30149
1 57516U 23113Y   26170.99884816 -.00000249  00000-0  49327-6 0  9990
2 57516  43.0022 158.1471 0002326 276.5679  83.4908 15.27578009159224
Epoch: 2026-06-19T23:58Z
TLE epoch observation values (Epoch: 2026-06-19T23:58:20.481Z)
Latitude
0.00001°
Longitude
-109.658°
Altitude
482.65 km
Speed
7.626 km/s
True Right ascension
10h 32m 35s
True Declination
0° 00' 00"
Sunlit
Object was in daylight at epoch
Visualization orbit readout
Latitude
Unknown
Longitude
Unknown
Altitude
Unknown
Speed
Unknown
Apparent Right ascension
Unknown
Apparent Declination
Unknown
Sunlit
N/A
Visualization observer readout
Local Sidereal Time
21:26:38
Azimuth
Unknown
Elevation
Unknown
Doppler factor
Unknown
Orbital elements
Apogee altitude
486.596 km
Perigee altitude
483.403 km
Semi-major axis
6,863.137 km
Eccentricity
0.00023
Inclination
43.0022°
RAAN
158.1471°
Arg. of periapsis
276.5679°
True anomaly
83.51728°
Mean anomaly
83.4908°
Eccentric anomaly
83.50404°
Mean motion
3.81733 °/min
Orbital period
94.31 mins
BSTAR
4.9327e-7
Loading maneuver chart data...
Computing Atmospheric mass density...
Loading historical data...
Loading historical data...
Loading historical data...
Loading historical data...
Loading historical data...
Loading historical data...
Loading historical data...

Documentation

Showing up to 5 results
|